sat.trackr.live / text

‹ back to catalog

KINEIS-4C

NORAD 63301 · 2025-056B

PAYLOAD ACTIVE UNKNOWN

§ Identity

Operator
Country
FR
Launch date
2025-03-18
Launch site
RLLB
Launch vehicle
Mass (kg)
RCS (m²)

External: N2YO · Heavens-Above · Gunter

§ Orbital elements

Epoch: 2026-09-22T22:08:03.480864Z

Period
97.81 min
Inclination
97.9201°
Eccentricity
0.0003874
Mean motion
14.72292909 rev/d
Perigee alt
651.0 km
Apogee alt
656.5 km
Semi-major
7,031.9 km
B*
1.6077e-4
RAAN
27.4612°
Arg perigee
31.0820°
Mean anomaly
329.0616°
Rev number
8,151

§ Raw data

KINEIS-4C1 63301U 25056B   26265.92226251  .00000967  00000+0  16077-3 0  99962 63301  97.9201  27.4612 0003874  31.0820 329.0616 14.72292909 81518

JSON: /api/v1/satellites/63301 · /tle

For live sub-satellite position, see the globe view (requires WebGL).

§ Visibility from observer

Set your observer location to see the next 7 days of passes ≥ 10°. The values pass through the URL so the page stays shareable.

No JS? Fill the form by hand. The geolocation button needs JavaScript.

§ Radio — SatNOGS DB

ModeDescriptionDownlinkUplink
BPSK PMT-A3 Mode U 400.651 MHz
BPSK S-band telemetry 2.266 GHz
UNKNOWN S-band telemetry 2.261 GHz

3 transmitters · refreshed weekly from db.satnogs.org